Previsão horária em 3 internacional

Hoje, 26 Janeiro, Terça-feira

Tempo Temperatura Precipitação Vento Pressão Humidade
00:00 -18°C° 0 mm 4 m/s 768 mmHg 78%
01:00 -18°C° 0 mm 4 m/s 768 mmHg 77%
02:00 -19°C° 0 mm 5 m/s 767 mmHg 76%
03:00 -19°C° 0 mm 5 m/s 767 mmHg 76%
04:00 -19°C° 0 mm 5 m/s 767 mmHg 75%
05:00 -19°C° 0 mm 5 m/s 767 mmHg 75%
06:00 -20°C° 0 mm 6 m/s 767 mmHg 74%
07:00 -20°C° 0 mm 6 m/s 767 mmHg 74%
08:00 -18°C° 0 mm 6 m/s 767 mmHg 72%
09:00 -17°C° 0 mm 7 m/s 767 mmHg 70%
10:00 -15°C° 0 mm 7 m/s 767 mmHg 69%
11:00 -14°C° 0 mm 7 m/s 767 mmHg 70%
12:00 -13°C° 0 mm 7 m/s 766 mmHg 70%
13:00 -12°C° 0 mm 7 m/s 766 mmHg 71%
14:00 -13°C° 0 mm 7 m/s 766 mmHg 73%
15:00 -12°C° 0 mm 6 m/s 766 mmHg 75%
16:00 -14°C° 0 mm 6 m/s 765 mmHg 78%
17:00 -15°C° 0 mm 6 m/s 766 mmHg 79%
18:00 -16°C° 0 mm 6 m/s 766 mmHg 81%
19:00 -17°C° 0 mm 6 m/s 766 mmHg 83%
20:00 -17°C° 0 mm 6 m/s 766 mmHg 83%
21:00 -17°C° 0 mm 6 m/s 766 mmHg 83%
22:00 -18°C° 0 mm 6 m/s 765 mmHg 83%
23:00 -18°C° 0 mm 6 m/s 765 mmHg 84%

Amanhã, 27 Janeiro, Quarta-feira

Tempo Temperatura Precipitação Vento Pressão Humidade
00:00 -18°C° 0 mm 6 m/s 765 mmHg 85%
01:00 -18°C° 0 mm 6 m/s 765 mmHg 86%
02:00 -18°C° 0 mm 5 m/s 765 mmHg 86%
03:00 -18°C° 0 mm 5 m/s 765 mmHg 87%
04:00 -18°C° 0 mm 5 m/s 765 mmHg 87%
05:00 -18°C° 0 mm 5 m/s 765 mmHg 87%
06:00 -18°C° 0 mm 5 m/s 765 mmHg 86%
07:00 -18°C° 0 mm 6 m/s 765 mmHg 86%
08:00 -17°C° 0 mm 6 m/s 765 mmHg 83%
09:00 -15°C° 0 mm 6 m/s 765 mmHg 81%
10:00 -14°C° 0 mm 7 m/s 766 mmHg 79%
11:00 -13°C° 0 mm 7 m/s 765 mmHg 78%
12:00 -12°C° 0 mm 7 m/s 765 mmHg 77%
13:00 -9°C° 0 mm 7 m/s 765 mmHg 76%
14:00 -10°C° 0 mm 6 m/s 765 mmHg 77%
15:00 -10°C° 0 mm 6 m/s 765 mmHg 79%
16:00 -11°C° 0 mm 6 m/s 765 mmHg 80%
17:00 -12°C° 0 mm 6 m/s 765 mmHg 81%
18:00 -14°C° 0 mm 6 m/s 765 mmHg 82%
19:00 -14°C° 0 mm 5 m/s 765 mmHg 83%
20:00 -15°C° 0 mm 5 m/s 765 mmHg 83%
21:00 -16°C° 0 mm 6 m/s 765 mmHg 84%
22:00 -16°C° 0 mm 6 m/s 764 mmHg 84%
23:00 -16°C° 0 mm 6 m/s 764 mmHg 85%

Depois de amanhã, 28 Janeiro, Quinta-feira

Tempo Temperatura Precipitação Vento Pressão Humidade
00:00 -16°C° 0 mm 6 m/s 764 mmHg 86%
01:00 -16°C° 0 mm 6 m/s 764 mmHg 87%
02:00 -16°C° 0 mm 6 m/s 764 mmHg 87%
03:00 -16°C° 0 mm 6 m/s 764 mmHg 87%
04:00 -16°C° 0 mm 6 m/s 764 mmHg 87%
05:00 -16°C° 0 mm 6 m/s 764 mmHg 86%
06:00 -16°C° 0 mm 6 m/s 764 mmHg 86%
07:00 -16°C° 0 mm 6 m/s 764 mmHg 86%
08:00 -15°C° 0 mm 6 m/s 764 mmHg 82%
09:00 -13°C° 0 mm 7 m/s 764 mmHg 79%
10:00 -12°C° 0 mm 7 m/s 764 mmHg 76%
11:00 -9°C° 0 mm 7 m/s 763 mmHg 75%
12:00 -8°C° 0 mm 7 m/s 763 mmHg 74%
13:00 -7°C° 0 mm 7 m/s 763 mmHg 73%
14:00 -8°C° 0 mm 7 m/s 763 mmHg 75%
15:00 -8°C° 0 mm 6 m/s 762 mmHg 77%
16:00 -9°C° 0 mm 6 m/s 762 mmHg 79%
17:00 -10°C° 0 mm 6 m/s 762 mmHg 81%
18:00 -12°C° 0 mm 6 m/s 762 mmHg 83%
19:00 -14°C° 0 mm 6 m/s 762 mmHg 85%
20:00 -14°C° 0 mm 6 m/s 762 mmHg 85%
21:00 -15°C° 0 mm 6 m/s 762 mmHg 85%
22:00 -14°C° 0 mm 5 m/s 762 mmHg 85%
23:00 -14°C° 0 mm 5 m/s 762 mmHg 85%

29 Janeiro, Sexta-feira

Tempo Temperatura Precipitação Vento Pressão Humidade
00:00 -14°C° 0 mm 5 m/s 762 mmHg 85%
01:00 -14°C° 0 mm 5 m/s 761 mmHg 85%
02:00 -14°C° 0 mm 5 m/s 761 mmHg 85%
03:00 -14°C° 0 mm 5 m/s 761 mmHg 85%
04:00 -14°C° 0 mm 5 m/s 761 mmHg 85%
05:00 -14°C° 0 mm 5 m/s 761 mmHg 85%
06:00 -14°C° 0 mm 5 m/s 761 mmHg 85%
07:00 -14°C° 0 mm 5 m/s 760 mmHg 84%
08:00 -12°C° 0 mm 5 m/s 760 mmHg 81%
09:00 -11°C° 0 mm 6 m/s 760 mmHg 77%
10:00 -9°C° 0 mm 6 m/s 760 mmHg 73%
11:00 -8°C° 0 mm 6 m/s 760 mmHg 73%
12:00 -5°C° 0 mm 6 m/s 759 mmHg 73%
13:00 -4°C° 0 mm 6 m/s 759 mmHg 73%
14:00 -5°C° 0 mm 5 m/s 759 mmHg 75%
15:00 -5°C° 0 mm 5 m/s 758 mmHg 78%
16:00 -6°C° 0 mm 5 m/s 758 mmHg 80%
17:00 -7°C° 0 mm 5 m/s 758 mmHg 81%
18:00 -8°C° 0 mm 6 m/s 758 mmHg 82%
19:00 -9°C° 0 mm 6 m/s 758 mmHg 82%
20:00 -9°C° 0 mm 6 m/s 757 mmHg 81%
21:00 -9°C° 0 mm 6 m/s 757 mmHg 80%
22:00 -8°C° 0 mm 5 m/s 757 mmHg 80%
23:00 -8°C° 0 mm 5 m/s 757 mmHg 78%

30 Janeiro, Sábado

Tempo Temperatura Precipitação Vento Pressão Humidade
00:00 -8°C° 0 mm 5 m/s 756 mmHg 76%
01:00 -8°C° 0 mm 5 m/s 756 mmHg 75%
02:00 -8°C° 0 mm 5 m/s 756 mmHg 74%
03:00 -8°C° 0 mm 5 m/s 756 mmHg 74%
04:00 -8°C° 0 mm 5 m/s 755 mmHg 74%
05:00 -10°C° 0 mm 5 m/s 755 mmHg 74%
06:00 -10°C° 0 mm 5 m/s 754 mmHg 75%
07:00 -10°C° 0 mm 5 m/s 754 mmHg 75%
08:00 -7°C° 0 mm 5 m/s 754 mmHg 70%
09:00 -5°C° 0 mm 6 m/s 754 mmHg 65%
10:00 -3°C° 0 mm 7 m/s 753 mmHg 60%
11:00 -2°C° 0 mm 6 m/s 753 mmHg 59%
12:00 -1°C° 0 mm 6 m/s 752 mmHg 58%
13:00 +1°C° 0 mm 5 m/s 751 mmHg 57%
14:00 0°C° 0 mm 5 m/s 751 mmHg 60%
15:00 0°C° 0 mm 5 m/s 751 mmHg 63%
16:00 -1°C° 0 mm 5 m/s 750 mmHg 66%
17:00 -2°C° 0 mm 5 m/s 750 mmHg 67%
18:00 -4°C° 0 mm 6 m/s 750 mmHg 67%
19:00 -5°C° 0 mm 6 m/s 750 mmHg 67%
20:00 -6°C° 0 mm 6 m/s 750 mmHg 68%
21:00 -6°C° 0 mm 6 m/s 749 mmHg 68%
22:00 -6°C° 0 mm 6 m/s 749 mmHg 69%
23:00 -6°C° 0 mm 6 m/s 748 mmHg 68%

31 Janeiro, Domingo

Tempo Temperatura Precipitação Vento Pressão Humidade
00:00 -5°C° 0 mm 6 m/s 748 mmHg 68%
01:00 -5°C° 0 mm 6 m/s 747 mmHg 67%
02:00 -5°C° 0 mm 6 m/s 747 mmHg 67%
03:00 -4°C° 0 mm 6 m/s 746 mmHg 66%
04:00 -4°C° 0 mm 6 m/s 746 mmHg 66%
05:00 -4°C° 0 mm 6 m/s 746 mmHg 66%
06:00 -4°C° 0 mm 7 m/s 745 mmHg 67%
07:00 -4°C° 0 mm 7 m/s 745 mmHg 68%
08:00 -4°C° 0 mm 7 m/s 745 mmHg 66%
09:00 -3°C° 0 mm 7 m/s 745 mmHg 64%
10:00 -2°C° 0 mm 6 m/s 745 mmHg 62%
11:00 -1°C° 0 mm 6 m/s 745 mmHg 61%
12:00 +1°C° 0 mm 5 m/s 745 mmHg 61%
13:00 +2°C° 0 mm 5 m/s 744 mmHg 61%
14:00 +1°C° 0 mm 4 m/s 745 mmHg 66%
15:00 0°C° 0 mm 4 m/s 745 mmHg 70%
16:00 +1°C° 0 mm 3 m/s 745 mmHg 75%
17:00 0°C° 0 mm 3 m/s 745 mmHg 77%
18:00 -1°C° 0 mm 3 m/s 745 mmHg 79%
19:00 -2°C° 0 mm 2 m/s 746 mmHg 82%
20:00 -2°C° 0 mm 2 m/s 746 mmHg 82%
21:00 -2°C° 0 mm 2 m/s 747 mmHg 82%
22:00 -3°C° 0 mm 2 m/s 747 mmHg 82%
23:00 -4°C° 0 mm 3 m/s 748 mmHg 83%
Mostrar mais